Philip, SD

3:12 AM MDT on October 01, 2016 (GMT -0600)
Philip

Weather History for KPHP - June, 2014

Change the Weather History Date:

Wednesday, June 11, 2014

  Actual Average Record
Temperature  
Mean Temperature 58 °F 66 °F  
Max Temperature 71 °F 79 °F 106 °F (2016)
Min Temperature 45 °F 52 °F 41 °F (2011)
Degree Days  
Heating Degree Days 7 3  
Month to date heating degree days 64 37  
Since 1 June heating degree days 64 37  
Since 1 July heating degree days 7531 7171  
Cooling Degree Days 0 3  
Month to date cooling degree days 1 26  
Year to date cooling degree days 41 53  
Since 1 June cooling degree days 1 26  
Growing Degree Days 8 (Base 50)    
Moisture  
Dew Point 53 °F    
Average Humidity 74    
Maximum Humidity 93    
Minimum Humidity 55    
Precipitation  
Precipitation 0.00 in 0.10 in 1.84 in (1953)
Month to date precipitation 1.31 1.09  
Year to date precipitation 6.13 8.01  
Sea Level Pressure  
Sea Level Pressure 29.84 in    
Wind  
Wind Speed 13 mph (NW)    
Max Wind Speed 31 mph    
Max Gust Speed 39 mph    
Visibility 10 miles    
Events      
T = Trace of Precipitation, MM = Missing Value Source: NWS Daily Summary

Daily Weather History Graph

Daily Weather History Graph

Search for Another Location

Airport or City:

Trip Planner

Search our weather history database for the weather conditions in past years. The results will help you decide how hot, cold, wet, or windy it might be!

Date:

Astronomy

Jun. 11, 2014 Rise Set
Actual Time 5:03 AM MDT 8:29 PM MDT
Civil Twilight 4:26 AM MDT 9:05 PM MDT
Nautical Twilight 3:39 AM MDT 9:53 PM MDT
Astronomical Twilight 2:39 AM MDT 10:53 PM MDT
Moon 6:57 PM MDT (6/11) 3:58 AM MDT (6/11)
Length of Visible Light 16h 38m
Length of Day
15h 26m
Waxing Gibbous, 97% of the Moon is Illuminated
Jun 11
Waxing Gibbous
Jun 12
Full
Jun 19
Last Quarter
Jun 27
New
Jul 5
First Quarter

Hourly Weather History & Observations

Time (MDT) Temp. Windchill Dew Point Humidity Pressure Visibility Wind Dir Wind Speed Gust Speed Precip Events Conditions
12:55 AM 57.9 °F - 55.9 °F 93% 29.71 in 10.0 mi WNW 8.1 mph - N/A   Clear
1:55 AM 55.9 °F - 54.0 °F 93% 29.71 in 10.0 mi WNW 9.2 mph - N/A   Clear
2:55 AM 55.0 °F - 53.1 °F 93% 29.72 in 10.0 mi West 5.8 mph - N/A   Partly Cloudy
3:11 AM 55.0 °F - 54.0 °F 96% 29.75 in 10.0 mi WNW 5.8 mph - N/A   Mostly Cloudy
3:18 AM 55.9 °F - 55.0 °F 97% 29.75 in 10.0 mi WNW 4.6 mph - N/A   Mostly Cloudy
3:55 AM 57.0 °F - 55.9 °F 96% 29.70 in 8.0 mi NW 5.8 mph - N/A   Overcast
4:34 AM 57.9 °F - 55.9 °F 93% 29.76 in 10.0 mi NW 8.1 mph - N/A   Overcast
4:55 AM 57.9 °F - 55.9 °F 93% 29.71 in 10.0 mi WNW 8.1 mph - N/A   Overcast
5:32 AM 57.0 °F - 55.0 °F 93% 29.76 in 7.0 mi NNW 6.9 mph - N/A   Overcast
5:55 AM 57.0 °F - 54.0 °F 89% 29.73 in 10.0 mi NNW 8.1 mph - N/A   Overcast
6:04 AM 57.0 °F - 55.0 °F 93% 29.77 in 10.0 mi NW 6.9 mph - N/A   Overcast
6:55 AM 57.9 °F - 55.0 °F 90% 29.74 in 10.0 mi NW 6.9 mph - N/A   Overcast
7:55 AM 57.9 °F - 55.0 °F 90% 29.77 in 10.0 mi NW 11.5 mph - N/A   Overcast
8:32 AM 59.0 °F - 55.0 °F 87% 29.81 in 10.0 mi NW 9.2 mph - N/A   Overcast
8:55 AM 59.0 °F - 55.0 °F 87% 29.79 in 10.0 mi NNW 12.7 mph - N/A   Overcast
9:07 AM 59.0 °F - 55.0 °F 87% 29.82 in 10.0 mi NNW 12.7 mph - N/A   Overcast
9:55 AM 60.1 °F - 55.0 °F 83% 29.80 in 10.0 mi NW 16.1 mph 24.2 mph N/A   Overcast
10:55 AM 64.0 °F - 55.9 °F 75% 29.81 in 10.0 mi North 16.1 mph - N/A   Overcast
11:07 AM 64.0 °F - 55.0 °F 73% 29.84 in 10.0 mi NNW 17.3 mph - N/A   Overcast
11:15 AM 64.9 °F - 55.0 °F 70% 29.84 in 10.0 mi NNW 17.3 mph - N/A   Overcast
11:43 AM 66.9 °F - 55.9 °F 68% 29.85 in 10.0 mi NNW 16.1 mph 25.3 mph N/A   Overcast
11:55 AM 66.0 °F - 55.9 °F 70% 29.82 in 10.0 mi NNW 12.7 mph - N/A   Overcast
12:55 PM 66.9 °F - 54.0 °F 63% 29.84 in 10.0 mi NNW 24.2 mph 32.2 mph N/A   Overcast
1:55 PM 68.0 °F - 53.1 °F 59% 29.84 in 10.0 mi NNW 20.7 mph 27.6 mph N/A   Scattered Clouds
2:55 PM 68.0 °F - 52.0 °F 56% 29.86 in 10.0 mi NW 20.7 mph 26.5 mph N/A   Partly Cloudy
3:55 PM 68.0 °F - 51.1 °F 55% 29.88 in 10.0 mi NW 28.8 mph 38.0 mph N/A   Partly Cloudy
4:55 PM 64.0 °F - 48.9 °F 58% 29.91 in 10.0 mi NW 28.8 mph 36.8 mph N/A   Scattered Clouds
5:55 PM 62.1 °F - 48.0 °F 60% 29.93 in 10.0 mi NW 18.4 mph 29.9 mph N/A   Clear
6:55 PM 59.0 °F - 48.0 °F 67% 29.97 in 10.0 mi NNW 17.3 mph 23.0 mph N/A   Partly Cloudy
7:55 PM 55.9 °F - 46.9 °F 72% 30.00 in 10.0 mi North 12.7 mph - N/A   Scattered Clouds
8:55 PM 55.0 °F - 48.0 °F 77% 30.04 in 10.0 mi North 5.8 mph - N/A   Overcast
9:55 PM 51.1 °F - 46.9 °F 86% 30.05 in 10.0 mi WNW 4.6 mph - N/A   Mostly Cloudy
10:55 PM 48.0 °F - 44.1 °F 86% 30.06 in 10.0 mi NNW 5.8 mph - N/A   Clear
11:55 PM 46.0 °F 43.1 °F 43.0 °F 89% 30.07 in 10.0 mi West 5.8 mph - N/A   Clear